Location: Unspecified
(0.0000°N, 0.0000°E)
Time: 06:02:15
(UTC+00:00)

METEOR M2 - Pass Details

Date: 07 July 2020
Orbit: 818 x 828 km, 98.5° (Epoch: 13 August)

Event Time Altitude Azimuth Distance (km) Brightness Sun altitude
Exits shadow 19:50:14 61° 122° (ESE) 935 ? -24.2°
Maximum altitude 19:50:56 68° 78° (ENE) 886 ? -24.3°
Drops below altitude 10° 19:56:15 10° 355° (N) 2,420 ? -25.5°
Sets 19:58:37 0° 353° (N) 3,351 ? -26.1°
